TimeCST,TemperatureF,Dew PointF,Humidity,Sea Level PressureIn,VisibilityMPH,Wind Direction,Wind SpeedMPH,Gust SpeedMPH,PrecipitationIn,Events,Conditions,WindDirDegrees,DateUTC
12:15 AM,42.8,25.7,51,29.74,10.0,WSW,10.4,-,N/A,,Scattered Clouds,240,2013-11-20 06:15:00
12:35 AM,41.9,25.3,52,29.74,10.0,WSW,8.1,-,N/A,,Scattered Clouds,240,2013-11-20 06:35:00
12:55 AM,40.6,25.3,54,29.73,10.0,WSW,8.1,-,N/A,,Clear,250,2013-11-20 06:55:00
1:15 AM,40.3,25.5,56,29.74,10.0,WSW,6.9,-,N/A,,Clear,250,2013-11-20 07:15:00
1:35 AM,40.6,25.3,54,29.74,10.0,WSW,4.6,-,N/A,,Mostly Cloudy,250,2013-11-20 07:35:00
1:55 AM,43.7,24.8,47,29.74,10.0,Calm,Calm,-,N/A,,Mostly Cloudy,0,2013-11-20 07:55:00
2:15 AM,44.6,24.1,44,29.75,10.0,North,6.9,-,N/A,,Scattered Clouds,350,2013-11-20 08:15:00
2:35 AM,44.4,24.4,45,29.75,10.0,NW,4.6,-,N/A,,Clear,320,2013-11-20 08:35:00
2:55 AM,44.8,24.3,45,29.76,10.0,Calm,Calm,-,N/A,,Clear,0,2013-11-20 08:55:00
3:15 AM,45.7,24.3,43,29.76,10.0,Calm,Calm,-,N/A,,Clear,0,2013-11-20 09:15:00
3:35 AM,42.4,25.7,52,29.76,10.0,SW,4.6,-,N/A,,Scattered Clouds,230,2013-11-20 09:35:00
3:55 AM,40.6,26.4,57,29.76,10.0,WSW,5.8,-,N/A,,Scattered Clouds,240,2013-11-20 09:55:00
4:15 AM,41.4,25.5,53,29.76,10.0,SW,8.1,-,N/A,,Mostly Cloudy,230,2013-11-20 10:15:00
4:35 AM,41.2,25.2,53,29.77,10.0,WSW,6.9,-,N/A,,Mostly Cloudy,250,2013-11-20 10:35:00
4:55 AM,40.5,24.1,52,29.77,10.0,WSW,8.1,-,N/A,,Overcast,250,2013-11-20 10:55:00
5:15 AM,39.2,23.7,54,29.77,10.0,WSW,8.1,-,N/A,,Scattered Clouds,240,2013-11-20 11:15:00
5:35 AM,38.1,23.9,57,29.77,10.0,WSW,6.9,-,N/A,,Clear,240,2013-11-20 11:35:00
5:55 AM,37.0,23.9,59,29.77,10.0,SW,6.9,-,N/A,,Clear,230,2013-11-20 11:55:00
6:15 AM,36.7,24.1,60,29.78,10.0,WSW,8.1,-,N/A,,Clear,240,2013-11-20 12:15:00
6:35 AM,37.0,25.2,62,29.79,10.0,WSW,9.2,-,N/A,,Clear,240,2013-11-20 12:35:00
6:55 AM,37.4,25.3,62,29.78,10.0,WSW,5.8,-,N/A,,Scattered Clouds,240,2013-11-20 12:55:00
7:15 AM,36.5,25.9,65,29.80,10.0,WSW,8.1,-,N/A,,Mostly Cloudy,240,2013-11-20 13:15:00
7:35 AM,36.1,26.2,67,29.80,10.0,WSW,10.4,-,N/A,,Mostly Cloudy,240,2013-11-20 13:35:00
7:55 AM,36.1,25.7,66,29.81,10.0,SW,10.4,-,N/A,,Scattered Clouds,230,2013-11-20 13:55:00
8:15 AM,37.6,25.5,62,29.82,10.0,WSW,9.2,-,N/A,,Clear,240,2013-11-20 14:15:00
8:35 AM,37.8,25.3,61,29.82,10.0,WSW,8.1,-,N/A,,Scattered Clouds,250,2013-11-20 14:35:00
8:55 AM,39.7,26.1,58,29.82,10.0,WSW,8.1,-,N/A,,Scattered Clouds,240,2013-11-20 14:55:00
9:15 AM,43.2,27.1,53,29.82,10.0,WSW,5.8,-,N/A,,Clear,250,2013-11-20 15:15:00
9:35 AM,46.4,28.0,49,29.83,10.0,WSW,8.1,-,N/A,,Clear,250,2013-11-20 15:35:00
9:55 AM,50.2,29.3,45,29.83,10.0,West,8.1,-,N/A,,Clear,270,2013-11-20 15:55:00
10:15 AM,55.0,27.9,35,29.83,10.0,NNW,15.0,18.4,N/A,,Clear,340,2013-11-20 16:15:00
10:35 AM,56.3,26.6,32,29.83,10.0,NNW,12.7,18.4,N/A,,Clear,330,2013-11-20 16:35:00
10:55 AM,57.9,25.9,29,29.83,10.0,NW,11.5,18.4,N/A,,Clear,320,2013-11-20 16:55:00
11:15 AM,59.0,25.9,28,29.82,10.0,NNW,10.4,16.1,N/A,,Clear,340,2013-11-20 17:15:00
11:35 AM,60.6,24.6,25,29.81,10.0,North,13.8,20.7,N/A,,Clear,360,2013-11-20 17:35:00
11:55 AM,61.7,21.9,22,29.81,10.0,NNW,17.3,23.0,N/A,,Clear,330,2013-11-20 17:55:00
12:15 PM,62.6,21.0,20,29.79,10.0,NNW,16.1,-,N/A,,Clear,340,2013-11-20 18:15:00
12:35 PM,62.6,20.3,20,29.79,10.0,NNW,13.8,19.6,N/A,,Clear,330,2013-11-20 18:35:00
12:55 PM,63.9,21.0,19,29.79,10.0,NNW,11.5,21.9,N/A,,Clear,340,2013-11-20 18:55:00
1:15 PM,63.3,21.9,21,29.79,10.0,NNW,11.5,21.9,N/A,,Clear,330,2013-11-20 19:15:00
1:35 PM,63.3,20.7,19,29.78,10.0,NNW,11.5,-,N/A,,Clear,330,2013-11-20 19:35:00
1:55 PM,63.5,20.5,19,29.77,10.0,NW,9.2,-,N/A,,Clear,320,2013-11-20 19:55:00
2:15 PM,63.5,19.6,19,29.77,10.0,NW,8.1,-,N/A,,Clear,310,2013-11-20 20:15:00
2:35 PM,63.9,19.6,18,29.76,10.0,West,6.9,-,N/A,,Clear,280,2013-11-20 20:35:00
2:55 PM,64.0,19.2,18,29.76,10.0,West,9.2,19.6,N/A,,Clear,270,2013-11-20 20:55:00
3:15 PM,64.8,19.4,18,29.76,10.0,West,10.4,-,N/A,,Clear,270,2013-11-20 21:15:00
3:35 PM,64.4,19.4,18,29.76,10.0,West,9.2,-,N/A,,Clear,270,2013-11-20 21:35:00
3:55 PM,63.7,19.4,18,29.76,10.0,West,8.1,-,N/A,,Clear,280,2013-11-20 21:55:00
4:15 PM,63.3,19.0,18,29.76,10.0,NW,9.2,-,N/A,,Clear,310,2013-11-20 22:15:00
4:35 PM,61.9,19.9,20,29.77,10.0,NW,5.8,-,N/A,,Clear,310,2013-11-20 22:35:00
4:55 PM,59.4,20.3,22,29.77,10.0,North,4.6,-,N/A,,Clear,10,2013-11-20 22:55:00
5:15 PM,59.0,20.7,23,29.78,10.0,Calm,Calm,-,N/A,,Clear,0,2013-11-20 23:15:00
5:35 PM,56.1,21.2,26,29.79,10.0,NNE,3.5,-,N/A,,Clear,30,2013-11-20 23:35:00
5:55 PM,52.2,21.9,31,29.79,10.0,ENE,4.6,-,N/A,,Clear,70,2013-11-20 23:55:00
6:15 PM,49.5,21.9,34,29.80,10.0,East,3.5,-,N/A,,Clear,90,2013-11-21 00:15:00
6:35 PM,47.1,23.0,39,29.81,10.0,ESE,5.8,-,N/A,,Clear,110,2013-11-21 00:35:00
6:55 PM,44.8,24.1,44,29.81,10.0,SE,4.6,-,N/A,,Clear,130,2013-11-21 00:55:00
7:15 PM,43.2,25.2,49,29.82,10.0,SE,8.1,-,N/A,,Clear,140,2013-11-21 01:15:00
7:35 PM,44.2,25.7,48,29.83,10.0,Calm,Calm,-,N/A,,Clear,0,2013-11-21 01:35:00
7:55 PM,45.0,26.2,48,29.83,10.0,SSE,9.2,-,N/A,,Clear,150,2013-11-21 01:55:00
8:15 PM,45.5,25.7,46,29.84,10.0,SSE,6.9,-,N/A,,Clear,160,2013-11-21 02:15:00
8:35 PM,46.2,25.7,45,29.84,10.0,SSE,9.2,-,N/A,,Clear,150,2013-11-21 02:35:00
8:55 PM,43.3,25.5,49,29.86,10.0,West,8.1,-,N/A,,Clear,270,2013-11-21 02:55:00
9:15 PM,41.4,25.5,53,29.86,10.0,WSW,5.8,-,N/A,,Clear,240,2013-11-21 03:15:00
9:35 PM,40.1,26.1,57,29.88,10.0,SW,5.8,-,N/A,,Clear,220,2013-11-21 03:35:00
9:55 PM,39.6,26.1,58,29.88,10.0,Calm,Calm,-,N/A,,Scattered Clouds,0,2013-11-21 03:55:00
10:15 PM,41.5,25.7,53,29.89,10.0,Calm,Calm,-,N/A,,Scattered Clouds,0,2013-11-21 04:15:00
10:35 PM,42.6,25.7,51,29.89,10.0,Calm,Calm,-,N/A,,Mostly Cloudy,0,2013-11-21 04:35:00
10:55 PM,39.7,26.8,60,29.89,10.0,SW,5.8,-,N/A,,Scattered Clouds,220,2013-11-21 04:55:00
11:15 PM,40.3,26.6,58,29.89,10.0,WSW,3.5,-,N/A,,Scattered Clouds,240,2013-11-21 05:15:00
11:35 PM,41.5,26.4,55,29.89,10.0,Calm,Calm,-,N/A,,Mostly Cloudy,0,2013-11-21 05:35:00
11:55 PM,41.2,26.6,56,29.89,10.0,Calm,Calm,-,N/A,,Overcast,0,2013-11-21 05:55:00